Time,TemperatureF,DewpointF,PressureIn,WindDirection,WindDirectionDegrees,WindSpeedMPH,WindSpeedGustMPH,Humidity,HourlyPrecipIn,Conditions,Clouds,dailyrainin,SoftwareType,DateUTC
2013-01-13 00:04:00,33.0,33.0,30.10,SW,225,0.0,2.0,100,0.00,,,0.00,Weather View 32 v70,2013-01-13 05:04:00,
2013-01-13 00:09:00,33.0,33.0,30.10,SW,225,0.0,2.0,100,0.00,,,0.00,Weather View 32 v70,2013-01-13 05:09:00,
2013-01-13 00:14:00,32.0,32.0,30.10,WSW,248,1.0,2.0,100,0.00,,,0.00,Weather View 32 v70,2013-01-13 05:14:00,
2013-01-13 00:19:00,33.0,33.0,30.10,WSW,248,0.0,2.0,100,0.00,,,0.00,Weather View 32 v70,2013-01-13 05:19:00,
2013-01-13 00:24:00,33.0,33.0,30.10,WSW,248,1.0,2.0,100,0.00,,,0.00,Weather View 32 v70,2013-01-13 05:24:00,
2013-01-13 00:29:00,33.0,33.0,30.10,WSW,248,0.0,2.0,100,0.00,,,0.00,Weather View 32 v70,2013-01-13 05:29:00,
2013-01-13 00:39:00,33.0,33.0,30.10,WSW,248,0.0,2.0,100,0.00,,,0.00,Weather View 32 v70,2013-01-13 05:39:00,
2013-01-13 00:44:00,32.0,32.0,30.10,WSW,248,1.0,2.0,100,0.00,,,0.00,Weather View 32 v70,2013-01-13 05:44:00,
2013-01-13 00:54:00,32.0,32.0,30.09,SW,225,0.0,3.0,100,0.00,,,0.00,Weather View 32 v70,2013-01-13 05:54:00,
2013-01-13 01:04:00,32.0,32.0,30.09,WSW,248,2.0,3.0,100,0.00,,,0.00,Weather View 32 v70,2013-01-13 06:04:00,
2013-01-13 01:14:00,32.0,32.0,30.09,WSW,248,1.0,3.0,100,0.00,,,0.00,Weather View 32 v70,2013-01-13 06:14:00,
2013-01-13 01:19:00,32.0,32.0,30.10,SW,225,0.0,3.0,100,0.00,,,0.00,Weather View 32 v70,2013-01-13 06:19:00,
2013-01-13 01:29:00,32.0,32.0,30.09,SW,225,0.0,3.0,100,0.00,,,0.00,Weather View 32 v70,2013-01-13 06:29:00,
2013-01-13 01:39:00,32.0,32.0,30.10,SSE,158,1.0,3.0,100,0.00,,,0.00,Weather View 32 v70,2013-01-13 06:39:00,
2013-01-13 01:44:00,32.0,32.0,30.10,WNW,292,1.0,3.0,100,0.00,,,0.00,Weather View 32 v70,2013-01-13 06:44:00,
2013-01-13 01:54:00,32.0,32.0,30.10,West,270,0.0,3.0,100,0.00,,,0.00,Weather View 32 v70,2013-01-13 06:54:00,
2013-01-13 02:04:00,32.0,32.0,30.11,West,270,0.0,3.0,100,0.00,,,0.00,Weather View 32 v70,2013-01-13 07:04:00,
2013-01-13 02:09:00,32.0,32.0,30.10,SW,225,0.0,2.0,100,0.00,,,0.00,Weather View 32 v70,2013-01-13 07:09:00,
2013-01-13 02:19:00,32.0,32.0,30.10,WSW,248,0.0,2.0,100,0.00,,,0.00,Weather View 32 v70,2013-01-13 07:19:00,
2013-01-13 02:29:00,32.0,32.0,30.10,SW,225,0.0,2.0,100,0.00,,,0.00,Weather View 32 v70,2013-01-13 07:29:00,
2013-01-13 02:34:00,32.0,32.0,30.10,West,270,0.0,2.0,100,0.00,,,0.00,Weather View 32 v70,2013-01-13 07:34:00,
2013-01-13 02:43:00,32.0,32.0,30.10,West,270,0.0,2.0,100,0.00,,,0.00,Weather View 32 v70,2013-01-13 07:43:00,
2013-01-13 02:49:00,32.0,32.0,30.10,West,270,1.0,2.0,100,0.00,,,0.00,Weather View 32 v70,2013-01-13 07:49:00,
2013-01-13 02:59:00,32.0,32.0,30.10,West,270,0.0,2.0,100,0.00,,,0.00,Weather View 32 v70,2013-01-13 07:59:00,
2013-01-13 03:09:00,32.0,32.0,30.10,West,270,0.0,2.0,100,0.00,,,0.00,Weather View 32 v70,2013-01-13 08:09:00,
2013-01-13 03:19:00,33.0,33.0,30.10,West,270,0.0,1.0,100,0.00,,,0.00,Weather View 32 v70,2013-01-13 08:19:00,
2013-01-13 03:29:00,33.0,33.0,30.10,SSW,202,0.0,1.0,100,0.00,,,0.00,Weather View 32 v70,2013-01-13 08:29:00,
2013-01-13 03:39:00,32.0,32.0,30.10,SW,225,0.0,2.0,100,0.00,,,0.00,Weather View 32 v70,2013-01-13 08:39:00,
2013-01-13 03:49:00,33.0,33.0,30.09,WNW,292,0.0,2.0,100,0.00,,,0.00,Weather View 32 v70,2013-01-13 08:49:00,
2013-01-13 03:59:00,32.0,32.0,30.10,WNW,292,1.0,2.0,100,0.00,,,0.00,Weather View 32 v70,2013-01-13 08:59:00,
2013-01-13 04:09:00,32.0,32.0,30.09,WNW,292,1.0,2.0,100,0.00,,,0.00,Weather View 32 v70,2013-01-13 09:09:00,
2013-01-13 04:19:00,33.0,33.0,30.09,WSW,248,0.0,2.0,100,0.00,,,0.00,Weather View 32 v70,2013-01-13 09:19:00,
2013-01-13 04:24:00,33.0,33.0,30.08,WSW,248,0.0,2.0,100,0.00,,,0.00,Weather View 32 v70,2013-01-13 09:24:00,
2013-01-13 04:34:00,32.0,32.0,30.08,WSW,248,0.0,2.0,100,0.00,,,0.00,Weather View 32 v70,2013-01-13 09:34:00,
2013-01-13 04:44:00,33.0,33.0,30.08,WSW,248,1.0,1.0,100,0.00,,,0.00,Weather View 32 v70,2013-01-13 09:44:00,
2013-01-13 04:49:00,32.0,32.0,30.08,West,270,1.0,1.0,100,0.00,,,0.00,Weather View 32 v70,2013-01-13 09:49:00,
2013-01-13 04:59:00,32.0,32.0,30.09,West,270,0.0,1.0,100,0.00,,,0.00,Weather View 32 v70,2013-01-13 09:59:00,
2013-01-13 05:04:00,32.0,32.0,30.10,WNW,292,1.0,1.0,100,0.01,,,0.01,Weather View 32 v70,2013-01-13 10:04:00,
2013-01-13 05:09:00,32.0,32.0,30.10,WSW,248,0.0,2.0,100,0.01,,,0.01,Weather View 32 v70,2013-01-13 10:09:00,
2013-01-13 05:19:00,32.0,32.0,30.10,SW,225,1.0,2.0,100,0.01,,,0.01,Weather View 32 v70,2013-01-13 10:19:00,
2013-01-13 05:24:00,32.0,32.0,30.09,West,270,0.0,2.0,100,0.01,,,0.01,Weather View 32 v70,2013-01-13 10:24:00,
2013-01-13 05:34:00,32.0,32.0,30.09,SSW,202,0.0,2.0,100,0.01,,,0.01,Weather View 32 v70,2013-01-13 10:34:00,
2013-01-13 05:45:00,32.0,32.0,30.09,West,270,0.0,2.0,100,0.01,,,0.01,Weather View 32 v70,2013-01-13 10:45:00,
2013-01-13 05:54:00,33.0,33.0,30.09,West,270,0.0,2.0,100,0.01,,,0.01,Weather View 32 v70,2013-01-13 10:54:00,
2013-01-13 06:04:00,33.0,33.0,30.10,South,180,0.0,2.0,100,0.00,,,0.01,Weather View 32 v70,2013-01-13 11:04:00,
2013-01-13 06:14:00,32.0,32.0,30.09,WSW,248,1.0,2.0,100,0.00,,,0.01,Weather View 32 v70,2013-01-13 11:14:00,
2013-01-13 06:24:00,32.0,32.0,30.09,West,270,1.0,2.0,100,0.00,,,0.01,Weather View 32 v70,2013-01-13 11:24:00,
2013-01-13 06:29:00,32.0,32.0,30.10,West,270,0.0,2.0,100,0.00,,,0.01,Weather View 32 v70,2013-01-13 11:29:00,
2013-01-13 06:34:00,33.0,33.0,30.10,West,270,0.0,2.0,100,0.00,,,0.01,Weather View 32 v70,2013-01-13 11:34:00,
2013-01-13 06:44:00,33.0,33.0,30.09,WNW,292,0.0,2.0,100,0.00,,,0.01,Weather View 32 v70,2013-01-13 11:44:00,
2013-01-13 06:49:00,32.0,32.0,30.10,WNW,292,1.0,2.0,100,0.00,,,0.01,Weather View 32 v70,2013-01-13 11:49:00,
2013-01-13 06:54:00,33.0,33.0,30.10,WSW,248,0.0,2.0,100,0.00,,,0.01,Weather View 32 v70,2013-01-13 11:54:00,
2013-01-13 07:04:00,33.0,33.0,30.09,WSW,248,1.0,3.0,100,0.00,,,0.01,Weather View 32 v70,2013-01-13 12:04:00,
2013-01-13 07:14:00,33.0,33.0,30.10,South,180,1.0,3.0,100,0.00,,,0.01,Weather View 32 v70,2013-01-13 12:14:00,
2013-01-13 07:24:00,33.0,33.0,30.09,SSW,202,0.0,3.0,100,0.00,,,0.01,Weather View 32 v70,2013-01-13 12:24:00,
2013-01-13 07:34:00,33.0,33.0,30.09,SSW,202,0.0,3.0,100,0.00,,,0.01,Weather View 32 v70,2013-01-13 12:34:00,
2013-01-13 07:44:00,33.0,33.0,30.09,SW,225,0.0,3.0,100,0.00,,,0.01,Weather View 32 v70,2013-01-13 12:44:00,
2013-01-13 07:54:00,33.0,33.0,30.10,WSW,248,0.0,3.0,100,0.00,,,0.01,Weather View 32 v70,2013-01-13 12:54:00,
2013-01-13 07:59:00,33.0,33.0,30.10,SW,225,0.0,1.0,100,0.00,,,0.01,Weather View 32 v70,2013-01-13 12:59:00,
2013-01-13 08:09:00,33.0,33.0,30.11,South,180,0.0,2.0,100,0.00,,,0.01,Weather View 32 v70,2013-01-13 13:09:00,
2013-01-13 08:14:00,34.0,34.0,30.12,SE,135,1.0,2.0,100,0.00,,,0.01,Weather View 32 v70,2013-01-13 13:14:00,
2013-01-13 08:19:00,33.0,33.0,30.12,SSE,158,1.0,2.0,100,0.00,,,0.01,Weather View 32 v70,2013-01-13 13:19:00,
2013-01-13 08:29:00,33.0,33.0,30.12,South,180,1.0,3.0,100,0.00,,,0.01,Weather View 32 v70,2013-01-13 13:29:00,
2013-01-13 08:34:00,33.0,33.0,30.12,WSW,248,1.0,3.0,100,0.00,,,0.01,Weather View 32 v70,2013-01-13 13:34:00,
2013-01-13 08:44:00,33.0,33.0,30.13,SSE,158,2.0,3.0,100,0.00,,,0.01,Weather View 32 v70,2013-01-13 13:44:00,
2013-01-13 08:54:00,34.0,34.0,30.12,SSE,158,1.0,3.0,100,0.00,,,0.01,Weather View 32 v70,2013-01-13 13:54:00,
2013-01-13 08:59:00,34.0,34.0,30.12,SSE,158,1.0,3.0,100,0.00,,,0.01,Weather View 32 v70,2013-01-13 13:59:00,
2013-01-13 09:09:00,34.0,34.0,30.11,SW,225,0.0,3.0,100,0.00,,,0.01,Weather View 32 v70,2013-01-13 14:09:00,
2013-01-13 09:19:00,34.0,34.0,30.12,WSW,248,0.0,3.0,100,0.00,,,0.01,Weather View 32 v70,2013-01-13 14:19:00,
2013-01-13 09:24:00,34.0,34.0,30.12,WSW,248,0.0,3.0,100,0.00,,,0.01,Weather View 32 v70,2013-01-13 14:24:00,
2013-01-13 09:29:00,34.0,34.0,30.12,WSW,248,0.0,3.0,100,0.00,,,0.01,Weather View 32 v70,2013-01-13 14:29:00,
2013-01-13 09:39:00,35.0,35.0,30.13,WSW,248,0.0,3.0,100,0.00,,,0.01,Weather View 32 v70,2013-01-13 14:39:00,
2013-01-13 09:44:00,35.0,35.0,30.13,SE,135,1.0,3.0,100,0.00,,,0.01,Weather View 32 v70,2013-01-13 14:44:00,
2013-01-13 09:49:00,35.0,35.0,30.12,South,180,1.0,2.0,100,0.00,,,0.01,Weather View 32 v70,2013-01-13 14:49:00,
2013-01-13 09:59:00,35.0,35.0,30.12,WNW,292,0.0,3.0,100,0.00,,,0.01,Weather View 32 v70,2013-01-13 14:59:00,
2013-01-13 10:09:00,35.0,35.0,30.12,SE,135,1.0,3.0,100,0.00,,,0.01,Weather View 32 v70,2013-01-13 15:09:00,
2013-01-13 10:19:00,35.0,35.0,30.12,South,180,0.0,3.0,100,0.00,,,0.01,Weather View 32 v70,2013-01-13 15:19:00,
2013-01-13 10:24:00,36.0,36.0,30.12,SSE,158,0.0,3.0,100,0.00,,,0.01,Weather View 32 v70,2013-01-13 15:24:00,
2013-01-13 10:34:00,36.0,36.0,30.12,SSE,158,0.0,3.0,100,0.00,,,0.01,Weather View 32 v70,2013-01-13 15:34:00,
2013-01-13 10:39:00,36.0,36.0,30.11,SW,225,0.0,3.0,100,0.00,,,0.01,Weather View 32 v70,2013-01-13 15:39:00,
2013-01-13 10:48:00,36.0,36.0,30.11,SE,135,0.0,3.0,100,0.00,,,0.01,Weather View 32 v70,2013-01-13 15:48:00,
2013-01-13 10:54:00,36.0,36.0,30.10,South,180,1.0,3.0,100,0.00,,,0.01,Weather View 32 v70,2013-01-13 15:54:00,
2013-01-13 10:59:00,37.0,37.0,30.10,SSW,202,1.0,3.0,100,0.00,,,0.01,Weather View 32 v70,2013-01-13 15:59:00,
2013-01-13 11:04:00,37.0,37.0,30.10,South,180,1.0,2.0,100,0.00,,,0.01,Weather View 32 v70,2013-01-13 16:04:00,
2013-01-13 11:14:00,37.0,37.0,30.10,SE,135,0.0,2.0,100,0.00,,,0.01,Weather View 32 v70,2013-01-13 16:14:00,
2013-01-13 11:24:00,36.0,36.0,30.09,SE,135,1.0,3.0,100,0.00,,,0.01,Weather View 32 v70,2013-01-13 16:24:00,
2013-01-13 11:29:00,36.0,36.0,30.08,SSE,158,1.0,3.0,100,0.00,,,0.01,Weather View 32 v70,2013-01-13 16:29:00,
2013-01-13 11:39:00,36.0,36.0,30.08,SE,135,0.0,3.0,100,0.00,,,0.01,Weather View 32 v70,2013-01-13 16:39:00,
2013-01-13 11:44:00,36.0,36.0,30.07,South,180,1.0,3.0,100,0.00,,,0.01,Weather View 32 v70,2013-01-13 16:44:00,
2013-01-13 11:49:00,36.0,36.0,30.08,SSE,158,1.0,3.0,100,0.00,,,0.01,Weather View 32 v70,2013-01-13 16:49:00,
2013-01-13 11:59:00,36.0,36.0,30.07,SW,225,0.0,3.0,100,0.00,,,0.01,Weather View 32 v70,2013-01-13 16:59:00,
2013-01-13 12:09:00,36.0,36.0,30.06,SSE,158,0.0,3.0,100,0.00,,,0.01,Weather View 32 v70,2013-01-13 17:09:00,
2013-01-13 12:14:00,36.0,36.0,30.07,SSE,158,1.0,3.0,100,0.00,,,0.01,Weather View 32 v70,2013-01-13 17:14:00,
2013-01-13 12:24:00,36.0,36.0,30.06,SE,135,1.0,3.0,100,0.00,,,0.01,Weather View 32 v70,2013-01-13 17:24:00,
2013-01-13 12:34:00,36.0,36.0,30.07,SE,135,1.0,4.0,100,0.00,,,0.01,Weather View 32 v70,2013-01-13 17:34:00,
2013-01-13 12:44:00,35.0,35.0,30.06,SSE,158,1.0,4.0,100,0.00,,,0.01,Weather View 32 v70,2013-01-13 17:44:00,
2013-01-13 12:49:00,35.0,35.0,30.05,SE,135,0.0,4.0,100,0.00,,,0.01,Weather View 32 v70,2013-01-13 17:49:00,
2013-01-13 12:59:00,35.0,35.0,30.05,SSW,202,0.0,4.0,100,0.00,,,0.01,Weather View 32 v70,2013-01-13 17:59:00,
2013-01-13 13:04:00,35.0,35.0,30.05,WSW,248,0.0,4.0,100,0.00,,,0.01,Weather View 32 v70,2013-01-13 18:04:00,
2013-01-13 13:14:00,35.0,35.0,30.05,South,180,1.0,4.0,100,0.00,,,0.01,Weather View 32 v70,2013-01-13 18:14:00,
2013-01-13 13:24:00,35.0,35.0,30.05,South,180,0.0,4.0,100,0.00,,,0.01,Weather View 32 v70,2013-01-13 18:24:00,
2013-01-13 13:29:00,35.0,35.0,30.05,WSW,248,1.0,4.0,100,0.00,,,0.01,Weather View 32 v70,2013-01-13 18:29:00,
2013-01-13 13:34:00,35.0,35.0,30.05,SW,225,1.0,3.0,100,0.00,,,0.01,Weather View 32 v70,2013-01-13 18:34:00,
2013-01-13 13:44:00,35.0,35.0,30.04,South,180,1.0,3.0,100,0.00,,,0.01,Weather View 32 v70,2013-01-13 18:44:00,
2013-01-13 13:49:00,35.0,35.0,30.04,SSE,158,0.0,3.0,100,0.00,,,0.01,Weather View 32 v70,2013-01-13 18:49:00,
2013-01-13 13:59:00,35.0,35.0,30.03,South,180,1.0,3.0,100,0.00,,,0.01,Weather View 32 v70,2013-01-13 18:59:00,
2013-01-13 14:09:00,35.0,35.0,30.03,SE,135,1.0,3.0,100,0.00,,,0.01,Weather View 32 v70,2013-01-13 19:09:00,
2013-01-13 14:19:00,35.0,35.0,30.03,SSE,158,0.0,3.0,100,0.00,,,0.01,Weather View 32 v70,2013-01-13 19:19:00,
2013-01-13 14:29:00,35.0,35.0,30.03,SSW,202,0.0,3.0,100,0.00,,,0.01,Weather View 32 v70,2013-01-13 19:29:00,
2013-01-13 14:39:00,35.0,35.0,30.03,WNW,292,1.0,2.0,100,0.00,,,0.01,Weather View 32 v70,2013-01-13 19:39:00,
2013-01-13 14:50:00,35.0,35.0,30.03,SSW,202,1.0,2.0,100,0.00,,,0.01,Weather View 32 v70,2013-01-13 19:50:00,
2013-01-13 14:59:00,36.0,36.0,30.02,SSW,202,0.0,2.0,100,0.00,,,0.01,Weather View 32 v70,2013-01-13 19:59:00,
2013-01-13 15:04:00,36.0,36.0,30.02,SW,225,0.0,2.0,100,0.00,,,0.01,Weather View 32 v70,2013-01-13 20:04:00,
2013-01-13 15:09:00,36.0,36.0,30.01,SE,135,1.0,2.0,100,0.00,,,0.01,Weather View 32 v70,2013-01-13 20:09:00,
2013-01-13 15:19:00,35.0,35.0,30.02,SW,225,1.0,2.0,100,0.00,,,0.01,Weather View 32 v70,2013-01-13 20:19:00,
2013-01-13 15:24:00,36.0,36.0,30.02,South,180,0.0,2.0,100,0.00,,,0.01,Weather View 32 v70,2013-01-13 20:24:00,
2013-01-13 15:34:00,36.0,36.0,30.02,SW,225,1.0,2.0,100,0.00,,,0.01,Weather View 32 v70,2013-01-13 20:34:00,
2013-01-13 15:39:00,36.0,36.0,30.01,West,270,0.0,2.0,100,0.00,,,0.01,Weather View 32 v70,2013-01-13 20:39:00,
2013-01-13 15:44:00,36.0,36.0,30.00,WSW,248,0.0,2.0,100,0.00,,,0.01,Weather View 32 v70,2013-01-13 20:44:00,
2013-01-13 15:50:00,36.0,36.0,30.00,WSW,248,1.0,2.0,100,0.00,,,0.01,Weather View 32 v70,2013-01-13 20:50:00,
2013-01-13 15:59:00,36.0,36.0,29.99,SSW,202,1.0,5.0,100,0.00,,,0.01,Weather View 32 v70,2013-01-13 20:59:00,
2013-01-13 16:09:00,36.0,36.0,29.99,West,270,0.0,5.0,100,0.00,,,0.01,Weather View 32 v70,2013-01-13 21:09:00,
2013-01-13 16:19:00,35.0,35.0,29.99,WSW,248,1.0,5.0,100,0.00,,,0.01,Weather View 32 v70,2013-01-13 21:19:00,
2013-01-13 16:24:00,36.0,36.0,29.99,SSE,158,2.0,5.0,100,0.00,,,0.01,Weather View 32 v70,2013-01-13 21:24:00,
2013-01-13 16:29:00,36.0,36.0,29.99,West,270,2.0,5.0,100,0.00,,,0.01,Weather View 32 v70,2013-01-13 21:29:00,
2013-01-13 16:39:00,36.0,36.0,29.98,WSW,248,2.0,5.0,100,0.00,,,0.01,Weather View 32 v70,2013-01-13 21:39:00,
2013-01-13 16:44:00,36.0,36.0,29.98,SSW,202,1.0,5.0,100,0.00,,,0.01,Weather View 32 v70,2013-01-13 21:44:00,
2013-01-13 16:49:00,36.0,36.0,29.98,SW,225,0.0,5.0,100,0.00,,,0.01,Weather View 32 v70,2013-01-13 21:49:00,
2013-01-13 16:54:00,37.0,37.0,29.99,WNW,292,1.0,5.0,100,0.00,,,0.01,Weather View 32 v70,2013-01-13 21:54:00,
2013-01-13 17:04:00,36.0,36.0,29.99,SE,135,2.0,4.0,100,0.00,,,0.01,Weather View 32 v70,2013-01-13 22:04:00,
2013-01-13 17:14:00,37.0,37.0,29.98,West,270,1.0,4.0,100,0.00,,,0.01,Weather View 32 v70,2013-01-13 22:14:00,
2013-01-13 17:24:00,35.0,35.0,29.98,West,270,1.0,4.0,100,0.00,,,0.01,Weather View 32 v70,2013-01-13 22:24:00,
2013-01-13 17:29:00,35.0,35.0,29.99,WSW,248,5.0,5.0,100,0.00,,,0.01,Weather View 32 v70,2013-01-13 22:29:00,
2013-01-13 17:39:00,36.0,36.0,30.01,WNW,292,1.0,5.0,100,0.00,,,0.01,Weather View 32 v70,2013-01-13 22:39:00,
2013-01-13 17:49:00,36.0,36.0,30.00,West,270,2.0,5.0,100,0.00,,,0.01,Weather View 32 v70,2013-01-13 22:49:00,
2013-01-13 17:54:00,36.0,36.0,30.00,WNW,292,0.0,5.0,100,0.00,,,0.01,Weather View 32 v70,2013-01-13 22:54:00,
2013-01-13 18:04:00,36.0,36.0,30.01,West,270,1.0,5.0,100,0.00,,,0.01,Weather View 32 v70,2013-01-13 23:04:00,
2013-01-13 18:14:00,35.0,35.0,30.01,WNW,292,0.0,5.0,100,0.00,,,0.01,Weather View 32 v70,2013-01-13 23:14:00,
2013-01-13 18:24:00,35.0,35.0,29.99,SSW,202,1.0,5.0,100,0.00,,,0.01,Weather View 32 v70,2013-01-13 23:24:00,
2013-01-13 18:34:00,35.0,35.0,30.00,WSW,248,0.0,3.0,100,0.00,,,0.01,Weather View 32 v70,2013-01-13 23:34:00,
2013-01-13 18:39:00,35.0,35.0,30.00,WNW,292,0.0,3.0,100,0.00,,,0.01,Weather View 32 v70,2013-01-13 23:39:00,
2013-01-13 18:49:00,34.0,34.0,30.00,WNW,292,0.0,3.0,100,0.00,,,0.01,Weather View 32 v70,2013-01-13 23:49:00,
2013-01-13 18:54:00,35.0,35.0,29.99,SE,135,1.0,3.0,100,0.00,,,0.01,Weather View 32 v70,2013-01-13 23:54:00,
2013-01-13 19:04:00,34.0,34.0,30.00,WNW,292,1.0,3.0,100,0.00,,,0.01,Weather View 32 v70,2013-01-14 00:04:00,
2013-01-13 19:14:00,34.0,34.0,30.00,West,270,1.0,3.0,100,0.00,,,0.01,Weather View 32 v70,2013-01-14 00:14:00,
2013-01-13 19:19:00,34.0,34.0,29.99,WNW,292,1.0,3.0,100,0.00,,,0.01,Weather View 32 v70,2013-01-14 00:19:00,
2013-01-13 19:29:00,35.0,35.0,29.99,WNW,292,1.0,3.0,100,0.00,,,0.01,Weather View 32 v70,2013-01-14 00:29:00,
2013-01-13 19:34:00,34.0,34.0,29.99,WNW,292,1.0,3.0,100,0.00,,,0.01,Weather View 32 v70,2013-01-14 00:34:00,
2013-01-13 19:44:00,34.0,34.0,29.99,SW,225,1.0,2.0,100,0.00,,,0.01,Weather View 32 v70,2013-01-14 00:44:00,
2013-01-13 19:49:00,34.0,34.0,29.99,SSE,158,1.0,2.0,100,0.00,,,0.01,Weather View 32 v70,2013-01-14 00:49:00,
2013-01-13 19:59:00,34.0,34.0,29.98,SSE,158,1.0,3.0,100,0.00,,,0.01,Weather View 32 v70,2013-01-14 00:59:00,
2013-01-13 20:09:00,34.0,34.0,29.99,SSW,202,0.0,5.0,100,0.00,,,0.01,Weather View 32 v70,2013-01-14 01:09:00,
2013-01-13 20:19:00,34.0,34.0,29.99,South,180,1.0,5.0,100,0.00,,,0.01,Weather View 32 v70,2013-01-14 01:19:00,
2013-01-13 20:24:00,34.0,34.0,29.99,South,180,1.0,5.0,100,0.00,,,0.01,Weather View 32 v70,2013-01-14 01:24:00,
2013-01-13 20:34:00,34.0,34.0,30.00,SSE,158,1.0,5.0,100,0.00,,,0.01,Weather View 32 v70,2013-01-14 01:34:00,
2013-01-13 20:39:00,34.0,34.0,29.99,South,180,2.0,5.0,100,0.00,,,0.01,Weather View 32 v70,2013-01-14 01:39:00,
2013-01-13 20:49:00,35.0,35.0,29.98,SW,225,1.0,5.0,100,0.00,,,0.01,Weather View 32 v70,2013-01-14 01:49:00,
2013-01-13 20:59:00,34.0,34.0,29.99,WSW,248,1.0,5.0,100,0.00,,,0.01,Weather View 32 v70,2013-01-14 01:59:00,
2013-01-13 21:04:00,34.0,34.0,29.99,WSW,248,1.0,5.0,100,0.00,,,0.01,Weather View 32 v70,2013-01-14 02:04:00,
2013-01-13 21:14:00,34.0,34.0,29.98,West,270,1.0,3.0,100,0.00,,,0.01,Weather View 32 v70,2013-01-14 02:14:00,
2013-01-13 21:19:00,34.0,34.0,29.99,WNW,292,1.0,3.0,100,0.00,,,0.01,Weather View 32 v70,2013-01-14 02:19:00,
2013-01-13 21:29:00,35.0,35.0,29.98,SSW,202,0.0,3.0,100,0.00,,,0.01,Weather View 32 v70,2013-01-14 02:29:00,
2013-01-13 21:39:00,34.0,34.0,29.98,WSW,248,1.0,3.0,100,0.00,,,0.01,Weather View 32 v70,2013-01-14 02:39:00,
2013-01-13 21:44:00,34.0,34.0,29.98,SSW,202,0.0,3.0,100,0.00,,,0.01,Weather View 32 v70,2013-01-14 02:44:00,
2013-01-13 21:54:00,34.0,34.0,29.98,SSE,158,1.0,3.0,100,0.00,,,0.01,Weather View 32 v70,2013-01-14 02:54:00,
2013-01-13 21:59:00,34.0,34.0,29.98,West,270,0.0,3.0,100,0.00,,,0.01,Weather View 32 v70,2013-01-14 02:59:00,
2013-01-13 22:09:00,34.0,34.0,29.97,WNW,292,1.0,3.0,100,0.00,,,0.01,Weather View 32 v70,2013-01-14 03:09:00,
2013-01-13 22:14:00,34.0,34.0,29.98,WNW,292,0.0,3.0,100,0.00,,,0.01,Weather View 32 v70,2013-01-14 03:14:00,
2013-01-13 22:19:00,34.0,34.0,29.98,WNW,292,0.0,3.0,100,0.00,,,0.01,Weather View 32 v70,2013-01-14 03:19:00,
2013-01-13 22:24:00,34.0,34.0,29.97,SSW,202,1.0,3.0,100,0.00,,,0.01,Weather View 32 v70,2013-01-14 03:24:00,
2013-01-13 22:29:00,34.0,34.0,29.97,SSW,202,0.0,2.0,100,0.00,,,0.01,Weather View 32 v70,2013-01-14 03:29:00,
2013-01-13 22:39:00,34.0,34.0,29.98,SW,225,0.0,2.0,100,0.00,,,0.01,Weather View 32 v70,2013-01-14 03:39:00,
2013-01-13 22:44:00,34.0,34.0,29.97,WSW,248,0.0,2.0,100,0.00,,,0.01,Weather View 32 v70,2013-01-14 03:44:00,
2013-01-13 22:49:00,34.0,34.0,29.97,West,270,1.0,2.0,100,0.00,,,0.01,Weather View 32 v70,2013-01-14 03:49:00,
2013-01-13 22:54:00,34.0,34.0,29.97,South,180,1.0,2.0,100,0.00,,,0.01,Weather View 32 v70,2013-01-14 03:54:00,
2013-01-13 23:04:00,34.0,34.0,29.97,West,270,0.0,2.0,100,0.00,,,0.01,Weather View 32 v70,2013-01-14 04:04:00,
2013-01-13 23:14:00,34.0,34.0,29.97,South,180,1.0,2.0,100,0.00,,,0.01,Weather View 32 v70,2013-01-14 04:14:00,
2013-01-13 23:19:00,34.0,34.0,29.96,SSE,158,1.0,2.0,100,0.00,,,0.01,Weather View 32 v70,2013-01-14 04:19:00,
2013-01-13 23:24:00,34.0,34.0,29.96,South,180,2.0,5.0,100,0.00,,,0.01,Weather View 32 v70,2013-01-14 04:24:00,
2013-01-13 23:34:00,34.0,34.0,29.96,WSW,248,1.0,5.0,100,0.00,,,0.01,Weather View 32 v70,2013-01-14 04:34:00,
2013-01-13 23:41:00,34.0,34.0,29.96,WSW,248,1.0,5.0,100,0.00,,,0.01,Weather View 32 v70,2013-01-14 04:41:00,
2013-01-13 23:49:00,34.0,34.0,29.96,WNW,292,1.0,5.0,100,0.00,,,0.01,Weather View 32 v70,2013-01-14 04:49:00,
2013-01-13 23:54:00,34.0,34.0,29.96,WNW,292,1.0,5.0,100,0.00,,,0.01,Weather View 32 v70,2013-01-14 04:54:00,